This is the latest recevied weather packets stored in our database for station/object N3DXC. If no packets are shown the sender has not sent any weather packets the latest 10 day(s).
| Time | Temp. | Humidity | Pressure | Rain* | Wind** | Luminosity | Snow |
|---|---|---|---|---|---|---|---|
| 1778190584 | 12.78° C | 44% | 1009.9 hPa | 0 mm | - | - | - |
| 1778190284 | 12.78° C | 44% | 1010 hPa | 0 mm | - | - | - |
| 1778189983 | 12.78° C | 45% | 1010 hPa | 0 mm | - | - | - |
| 1778189384 | 12.78° C | 44% | 1010 hPa | 0 mm | - | - | - |
| 1778189084 | 13.33° C | 45% | 1009.8 hPa | 0 mm | - | - | - |
| 1778188784 | 13.33° C | 47% | 1009.6 hPa | 0 mm | - | - | - |
| 1778188484 | 13.33° C | 46% | 1009.6 hPa | 0 mm | - | - | - |
| 1778188184 | 13.33° C | 47% | 1009.8 hPa | 0 mm | - | - | - |
| 1778187884 | 12.78° C | 46% | 1009.8 hPa | 0 mm | - | - | - |
| 1778187584 | 13.33° C | 46% | 1009.6 hPa | 0 mm | - | - | - |
| 1778187284 | 13.33° C | 46% | 1009.8 hPa | 0 mm | - | - | - |
| 1778186984 | 13.33° C | 45% | 1009.8 hPa | 0 mm | - | - | - |
| 1778186684 | 12.78° C | 46% | 1009.8 hPa | 0 mm | - | - | - |
| 1778186384 | 12.78° C | 47% | 1009.8 hPa | 0 mm | - | - | - |
| 1778186084 | 12.78° C | 47% | 1009.8 hPa | 0 mm | - | - | - |
| 1778185784 | 12.78° C | 46% | 1009.9 hPa | 0 mm | - | - | - |
| 1778185485 | 12.78° C | 48% | 1009.9 hPa | 0 mm | - | - | - |
| 1778185184 | 12.78° C | 44% | 1009.9 hPa | 0 mm | - | - | - |
| 1778184884 | 13.33° C | 44% | 1009.9 hPa | 0 mm | - | - | - |
| 1778184583 | 13.89° C | 46% | 1010 hPa | 0 mm | - | - | - |
| 1778184284 | 13.89° C | 47% | 1010.1 hPa | 0 mm | - | - | - |
| 1778183984 | 13.33° C | 47% | 1010 hPa | 0 mm | - | - | - |
| 1778183684 | 12.78° C | 47% | 1010.1 hPa | 0 mm | - | - | - |
| 1778183384 | 13.33° C | 47% | 1010.2 hPa | 0 mm | - | - | - |
| 1778183084 | 12.78° C | 45% | 1010.2 hPa | 0 mm | - | - | - |
* Rain latest hour (hover to see other rain measurements)
** Current wind speed in m/s (hover to see current wind gust speed)